QIKCOM-1 (42983 NORAD) Tracking and Keplerian Element Data

This shows tracking and keplerian element data for the satellite.

Feedback or suggestion? Click here.




ElementValue
Catalog42983
NameQIKCOM-1
Epoch Orbit4015
Epoch Day193.44238479
Epoch Year2018
RAAN250.2476
Inclination51.6393
Eccentricity0.0003842
Argument of Perigee297.154
Mean Anonmoly62.906
Mean Motion15.56405599
Decay Rate1.848E-05
L11 42983U 98067NF 18193.44238479 .00001848 00000-0 32531-4 0 9998
L22 42983 051.6393 250.2476 0003842 297.1540 062.9060 15.56405599040158

Live tracking and technical data element details for QIKCOM-1 (NORAD 42983). QIKCOM-1 can be tracked NOW for your location showing map with azimuth and elevation plus other details from your city location.

Track the satellite on the map from your city or location and see movement details for azimuth, elevation, latitude, longitude, range, height, and movement on the map or in text.







IsCatalogInMostPopularTable: catalog: 42983, numindb: 95
Update: records affected: 1



GetName: 42983 QIKCOM-1

Hit Count: updated at: Thu, 19 Jul 2018 03:39:02 GMT